Location: Campillo
(40.8621°N, 4.2488°W)
Time: 05:30:39
(UTC+00:00)

USA 245 - Pass Details

Date: 28 September 2021
Orbit: 268 x 1011 km, 97.9° (Epoch: 25 October)

Event Time Altitude Azimuth Distance (km) Brightness Sun altitude
Exits shadow 20:39:47 13° 16° (NNE) 2,011 6.2 -29.5°
Drops below altitude 10° 20:40:31 10° 11° (N) 2,251 6.6 -29.7°
Sets 20:43:26 0° 359° (N) 3,321 7.6 -30.2°
